FW3224 Weather Reports


time (UTC)temp
C
wind
direction
speed
KPH
gust
KPH
rain 1hr
cm
rain 24hr
cm
rain mn
cm
humidity
%
barometer
mb
20260508180503 12 287 1.6 4.8 0.00 0.00 0.00 72 1021.6
20260508180005 12 287 1.6 6.4 0.00 0.00 0.00 72 1021.5
20260508175501 12 287 1.6 6.4 0.00 0.00 0.00 71 1021.6
20260508175101 12 287 3.2 4.8 0.00 0.00 0.00 71 1021.6
20260508174609 12 288 3.2 6.4 0.00 0.00 0.00 71 1021.5
20260508174101 12 283 3.2 8.0 0.00 0.00 0.00 71 1021.5
20260508173559 12 279 4.8 8.0 0.00 0.00 0.00 72 1021.4
20260508173058 12 284 3.2 6.4 0.00 0.00 0.00 72 1021.4
20260508172558 12 275 3.2 6.4 0.00 0.00 0.00 72 1021.5
20260508172058 12 273 3.2 6.4 0.00 0.00 0.00 73 1021.4
20260508171558 12 279 3.2 6.4 0.00 0.00 0.00 74 1021.4
20260508171057 12 280 3.2 4.8 0.00 0.00 0.00 73 1021.4
20260508170557 12 290 1.6 6.4 0.00 0.00 0.00 73 1021.4
20260508170058 12 277 1.6 6.4 0.00 0.00 0.00 72 1021.3
20260508165556 12 248 1.6 4.8 0.00 0.00 0.00 71 1021.3
20260508165056 12 243 3.2 6.4 0.00 0.00 0.00 70 1021.3
20260508164558 12 286 3.2 6.4 0.00 0.00 0.00 70 1021.2
20260508164056 12 265 3.2 8.0 0.00 0.00 0.00 70 1021.4
20260508163600 12 269 3.2 8.0 0.00 0.00 0.00 70 1021.4
20260508163055 12 279 4.8 9.7 0.00 0.00 0.00 71 1021.4
20260508162556 12 285 3.2 8.0 0.00 0.00 0.00 71 1021.4
20260508162055 12 277 3.2 6.4 0.00 0.00 0.00 71 1021.4
20260508161554 12 248 4.8 6.4 0.00 0.00 0.00 72 1021.4
20260508161054 12 281 3.2 6.4 0.00 0.00 0.00 72 1021.4
20260508160552 12 309 3.2 6.4 0.00 0.00 0.00 71 1021.4
20260508160052 12 317 3.2 6.4 0.00 0.00 0.00 71 1021.4
20260508155551 12 300 3.2 6.4 0.00 0.00 0.00 70 1021.3
20260508155050 12 309 3.2 6.4 0.00 0.00 0.00 70 1021.3
20260508154554 13 294 3.2 6.4 0.00 0.00 0.00 69 1021.3
20260508154051 13 277 3.2 9.7 0.00 0.00 0.00 68 1021.3
20260508153547 13 307 4.8 8.0 0.00 0.00 0.00 68 1021.3
20260508153047 13 283 4.8 11.3 0.00 0.00 0.00 68 1021.2
20260508152546 13 282 4.8 11.3 0.00 0.00 0.00 68 1021.3
20260508152046 13 302 3.2 6.4 0.00 0.00 0.00 68 1021.2
20260508151546 13 283 3.2 6.4 0.00 0.00 0.00 68 1021.3
20260508151047 13 282 1.6 4.8 0.00 0.00 0.00 68 1021.3
20260508150545 13 267 1.6 4.8 0.00 0.00 0.00 68 1021.3
20260508150045 13 264 0.0 3.2 0.00 0.00 0.00 68 1021.3
20260508145545 13 264 1.6 3.2 0.00 0.00 0.00 68 1021.3
20260508145047 13 264 1.6 4.8 0.00 0.00 0.00 67 1021.3
20260508144544 13 264 1.6 4.8 0.00 0.00 0.00 67 1021.2
20260508144044 13 256 1.6 6.4 0.00 0.00 0.00 67 1021.2
20260508143545 13 298 3.2 6.4 0.00 0.00 0.00 67 1021.1
20260508143043 13 236 1.6 8.0 0.00 0.00 0.00 67 1021.1
20260508142542 13 267 3.2 11.3 0.00 0.00 0.00 68 1021.1
20260508142042 13 249 3.2 11.3 0.00 0.00 0.00 68 1021.1
20260508141549 13 260 3.2 8.0 0.00 0.00 0.00 68 1021.1
20260508141040 13 259 3.2 8.0 0.00 0.00 0.00 68 1021.0
20260508140543 13 267 1.6 8.0 0.00 0.00 0.00 68 1021.0
20260508140049 13 286 3.2 6.4 0.00 0.00 0.00 69 1021.0
20260508135541 13 287 3.2 6.4 0.00 0.00 0.00 69 1021.0
20260508135038 13 263 1.6 6.4 0.00 0.00 0.00 69 1021.0
20260508134538 13 274 1.6 6.4 0.00 0.00 0.00 70 1021.0
20260508134038 13 277 3.2 8.0 0.00 0.00 0.00 70 1021.0
20260508133538 13 266 3.2 9.7 0.00 0.00 0.00 70 1020.9
20260508133038 13 275 3.2 9.7 0.00 0.00 0.00 69 1021.0
20260508132538 13 240 1.6 9.7 0.00 0.00 0.00 68 1021.0
20260508132037 13 306 1.6 6.4 0.00 0.00 0.00 68 1020.9
20260508131537 13 216 1.6 6.4 0.00 0.00 0.00 68 1020.9
20260508131038 13 205 1.6 8.0 0.00 0.00 0.00 68 1021.0
20260508130537 13 196 3.2 8.0 0.00 0.00 0.00 69 1020.9
20260508130039 13 289 1.6 6.4 0.00 0.00 0.00 70 1020.9
20260508125537 13 226 1.6 4.8 0.00 0.00 0.00 69 1021.0
20260508125037 13 267 1.6 4.8 0.00 0.00 0.00 69 1021.0
20260508124536 13 273 1.6 6.4 0.00 0.00 0.00 68 1020.9
20260508124035 13 237 1.6 9.7 0.00 0.00 0.00 67 1021.0
20260508123538 13 257 3.2 9.7 0.00 0.00 0.00 67 1021.0
20260508123036 13 277 3.2 9.7 0.00 0.00 0.00 67 1021.0
20260508122534 13 267 3.2 8.0 0.00 0.00 0.00 66 1021.0
20260508122037 13 267 3.2 11.3 0.00 0.00 0.00 66 1020.9
20260508121535 13 279 3.2 6.4 0.00 0.00 0.00 66 1021.0
20260508121034 13 263 1.6 6.4 0.00 0.00 0.00 66 1021.0
20260508120535 13 262 3.2 6.4 0.00 0.00 0.00 66 1021.0
20260508120038 13 271 3.2 6.4 0.00 0.00 0.00 65 1021.0
20260508115533 13 272 1.6 8.0 0.00 0.00 0.00 65 1021.0
20260508115034 14 254 3.2 8.0 0.00 0.00 0.00 64 1020.9
20260508114533 14 266 3.2 11.3 0.00 0.00 0.00 64 1020.9
20260508114033 14 262 4.8 11.3 0.00 0.00 0.00 64 1020.8
20260508113533 13 268 4.8 11.3 0.00 0.00 0.00 66 1020.7
20260508113033 14 279 6.4 11.3 0.00 0.00 0.00 66 1020.7
20260508112532 14 231 4.8 11.3 0.00 0.00 0.00 65 1020.7
20260508112032 14 251 4.8 11.3 0.00 0.00 0.00 65 1020.8
20260508111548 14 247 1.6 11.3 0.00 0.00 0.00 65 1020.9
20260508111034 14 234 3.2 11.3 0.00 0.00 0.00 64 1020.9
20260508110535 14 212 1.6 8.0 0.00 0.00 0.00 64 1020.9
20260508110031 14 185 3.2 8.0 0.00 0.00 0.00 63 1020.8
20260508105530 14 171 1.6 8.0 0.00 0.00 0.00 63 1020.8
20260508105028 14 202 3.2 8.0 0.00 0.00 0.00 63 1020.7
20260508104529 14 218 1.6 6.4 0.00 0.00 0.00 63 1020.6
20260508104028 15 159 1.6 8.0 0.00 0.00 0.00 63 1020.6
20260508103528 15 242 1.6 8.0 0.00 0.00 0.00 63 1020.5
20260508103032 15 256 1.6 11.3 0.00 0.00 0.00 63 1020.4
20260508102529 15 180 3.2 11.3 0.00 0.00 0.00 62 1020.4
20260508102027 15 205 3.2 11.3 0.00 0.00 0.00 62 1020.3
20260508101534 15 209 3.2 12.9 0.00 0.00 0.00 62 1020.4
20260508101027 15 157 3.2 14.5 0.00 0.00 0.00 62 1020.2
20260508100525 15 204 1.6 6.4 0.00 0.00 0.00 61 1020.2
20260508100028 15 210 1.6 8.0 0.00 0.00 0.00 61 1020.1
20260508095524 15 225 3.2 8.0 0.00 0.00 0.00 61 1020.1
20260508095023 15 266 3.2 16.1 0.00 0.00 0.00 60 1020.0
20260508094522 15 216 3.2 16.1 0.00 0.00 0.00 60 1019.9
20260508094021 15 187 3.2 16.1 0.00 0.00 0.00 60 1019.8
20260508093521 15 252 1.6 14.5 0.00 0.00 0.00 60 1019.7
20260508093020 15 221 4.8 14.5 0.00 0.00 0.00 59 1019.7
20260508092520 15 252 4.8 14.5 0.00 0.00 0.00 59 1019.5
20260508092019 15 259 3.2 11.3 0.00 0.00 0.00 59 1019.5
20260508091519 15 195 3.2 11.3 0.00 0.00 0.00 60 1019.5
20260508091018 16 271 1.6 6.4 0.00 0.00 0.00 59 1019.5
20260508090518 16 227 1.6 9.7 0.00 0.00 0.00 58 1019.4
20260508090018 16 198 3.2 11.3 0.00 0.00 0.00 58 1019.3
20260508085517 16 186 3.2 11.3 0.00 0.00 0.00 58 1019.2
20260508085016 16 209 1.6 8.0 0.00 0.00 0.00 58 1019.1
20260508084515 16 206 3.2 9.7 0.00 0.00 0.00 58 1019.1
20260508084018 16 257 3.2 9.7 0.00 0.00 0.00 57 1019.0
20260508083515 16 298 3.2 9.7 0.00 0.00 0.00 57 1018.9
20260508083014 16 254 1.6 9.7 0.00 0.00 0.00 57 1018.7
20260508082514 17 256 1.6 6.4 0.00 0.00 0.00 56 1018.6
20260508082014 17 259 1.6 9.7 0.00 0.00 0.00 55 1018.5
20260508081514 17 173 1.6 9.7 0.00 0.00 0.00 55 1018.4
20260508081014 17 249 1.6 8.0 0.00 0.00 0.00 54 1018.3
20260508080513 17 222 0.0 4.8 0.00 0.00 0.00 54 1018.2
20260508080013 17 257 1.6 8.0 0.00 0.00 0.00 54 1018.0
20260508075513 17 160 1.6 9.7 0.00 0.00 0.00 53 1018.0
20260508075014 17 175 1.6 17.7 0.00 0.00 0.00 51 1017.8
20260508074513 17 186 3.2 17.7 0.00 0.00 0.00 51 1017.7
20260508074012 17 190 4.8 17.7 0.00 0.00 0.00 51 1017.6
20260508073512 18 219 3.2 11.3 0.00 0.00 0.00 51 1017.5
20260508073013 18 175 3.2 9.7 0.00 0.00 0.00 51 1017.4
20260508072511 18 211 3.2 9.7 0.00 0.00 0.00 50 1017.3
20260508072012 18 209 3.2 9.7 0.00 0.00 0.00 50 1017.3
20260508071511 -17 0.0 0.0 0.00 0.00 0.00 1017.2
20260508071013 -17 0.0 0.0 0.00 0.00 0.00 1017.0
20260508070510 -17 0.0 0.0 0.00 0.00 0.00 1016.9
20260508070006 -17 0.0 0.0 0.00 0.00 0.00 1016.8
20260508065505 -17 0.0 0.0 0.00 0.00 0.00 1016.7
20260508065004 -17 0.0 0.0 0.00 0.00 0.00 1016.7
20260508064504 -17 0.0 0.0 0.00 0.00 0.00 1016.5
20260508064101 -17 0.0 0.0 0.00 0.00 0.00 1016.5
20260508063600 -17 0.0 0.0 0.00 0.00 0.00 1016.4
20260508063058 -17 0.0 0.0 0.00 0.00 0.00 1016.1
20260508062557 20 207 3.2 9.7 0.00 0.00 0.00 43 1016.1
20260508062057 20 207 3.2 9.7 0.00 0.00 0.00 43 1016.0
20260508061558 20 207 3.2 9.7 0.00 0.00 0.00 43 1015.9
20260508061056 20 183 4.8 17.7 0.00 0.00 0.00 43 1015.8
20260508060557 20 188 6.4 17.7 0.00 0.00 0.00 42 1015.9
20260508060056 20 252 4.8 19.3 0.00 0.00 0.00 41 1015.8
20260508055558 20 226 6.4 19.3 0.00 0.00 0.00 42 1015.7
20260508055056 20 221 3.2 14.5 0.00 0.00 0.00 42 1015.6
20260508054603 21 205 6.4 14.5 0.00 0.00 0.00 41 1015.6
20260508054055 21 229 4.8 14.5 0.00 0.00 0.00 41 1015.5
20260508053555 21 203 6.4 16.1 0.00 0.00 0.00 41 1015.6
20260508053056 21 207 6.4 16.1 0.00 0.00 0.00 41 1015.5
20260508052554 21 227 3.2 14.5 0.00 0.00 0.00 41 1015.4
20260508052056 21 235 4.8 19.3 0.00 0.00 0.00 40 1015.4
20260508051555 21 169 9.7 19.3 0.00 0.00 0.00 40 1015.4
20260508051054 21 233 8.0 19.3 0.00 0.00 0.00 39 1015.4
20260508050555 21 230 8.0 16.1 0.00 0.00 0.00 39 1015.3
20260508050054 21 202 6.4 14.5 0.00 0.00 0.00 40 1015.3
20260508045553 21 232 6.4 22.5 0.00 0.00 0.00 40 1015.3
20260508045055 21 202 9.7 22.5 0.00 0.00 0.00 39 1015.3
20260508044553 21 258 6.4 22.5 0.00 0.00 0.00 39 1015.2
20260508044054 21 210 9.7 20.9 0.00 0.00 0.00 39 1015.1
20260508043553 21 171 6.4 16.1 0.00 0.00 0.00 39 1015.2
20260508043100 21 270 6.4 22.5 0.00 0.00 0.00 39 1015.2
20260508042552 21 225 9.7 20.9 0.00 0.00 0.00 40 1015.2
20260508042057 21 194 6.4 17.7 0.00 0.00 0.00 41 1015.1
20260508041556 21 182 6.4 19.3 0.00 0.00 0.00 41 1015.2
20260508041051 21 161 6.4 19.3 0.00 0.00 0.00 40 1015.1
20260508040549 21 184 6.4 17.7 0.00 0.00 0.00 40 1015.2
20260508040048 21 227 6.4 17.7 0.00 0.00 0.00 40 1015.3
20260508035547 21 227 6.4 17.7 0.00 0.00 0.00 40 1015.3
20260508035046 20 191 3.2 19.3 0.00 0.00 0.00 41 1015.4
20260508034549 20 175 8.0 19.3 0.00 0.00 0.00 42 1015.4
20260508034043 20 239 6.4 16.1 0.00 0.00 0.00 43 1015.4
20260508033541 20 251 8.0 16.1 0.00 0.00 0.00 46 1015.5
20260508033040 19 242 6.4 19.3 0.00 0.00 0.00 46 1015.5
20260508032544 19 258 8.0 19.3 0.00 0.00 0.00 46 1015.5
20260508032044 19 248 8.0 19.3 0.00 0.00 0.00 46 1015.6
20260508031538 19 288 4.8 16.1 0.00 0.00 0.00 46 1015.6
20260508031036 19 317 6.4 17.7 0.00 0.00 0.00 47 1015.7
20260508030536 19 271 9.7 20.9 0.00 0.00 0.00 47 1015.6
20260508030036 18 267 11.3 19.3 0.00 0.00 0.00 47 1015.7
20260508025537 18 248 8.0 17.7 0.00 0.00 0.00 47 1015.7
20260508025033 18 290 9.7 17.7 0.00 0.00 0.00 47 1015.7
20260508024543 18 275 11.3 22.5 0.00 0.00 0.00 48 1015.9
20260508024031 18 248 9.7 24.1 0.00 0.00 0.00 49 1016.0
20260508023529 18 279 9.7 24.1 0.00 0.00 0.00 49 1016.1
20260508023030 18 284 12.9 27.4 0.00 0.00 0.00 49 1016.2
20260508022527 18 274 9.7 27.4 0.00 0.00 0.00 50 1016.3
20260508022027 18 222 9.7 24.1 0.00 0.00 0.00 50 1016.2
20260508021526 17 329 11.3 22.5 0.00 0.00 0.00 49 1016.4
20260508021025 17 216 12.9 22.5 0.00 0.00 0.00 49 1016.4
20260508020524 17 282 8.0 22.5 0.00 0.00 0.00 50 1016.7
20260508020023 17 288 11.3 22.5 0.00 0.00 0.00 49 1016.8
20260508015523 17 243 9.7 20.9 0.00 0.00 0.00 50 1016.9
20260508015021 17 246 8.0 22.5 0.00 0.00 0.00 51 1017.0
20260508014540 17 273 9.7 22.5 0.00 0.00 0.00 51 1017.1
20260508014020 17 236 9.7 22.5 0.00 0.00 0.00 51 1017.2
20260508013518 17 229 8.0 22.5 0.00 0.00 0.00 53 1017.2
20260508013018 16 252 12.9 22.5 0.00 0.00 0.00 51 1017.3
20260508012518 16 293 8.0 24.1 0.00 0.00 0.00 53 1017.4
20260508012016 16 248 12.9 24.1 0.00 0.00 0.00 52 1017.4
20260508011518 16 246 6.4 20.9 0.00 0.00 0.00 54 1017.4
20260508011013 16 242 11.3 24.1 0.00 0.00 0.00 53 1017.6
20260508010513 15 274 14.5 25.7 0.00 0.00 0.00 54 1017.6
20260508010021 15 254 12.9 25.7 0.00 0.00 0.00 54 1017.6
20260508005517 15 273 12.9 25.7 0.00 0.00 0.00 54 1017.6
20260508005010 15 299 12.9 25.7 0.00 0.00 0.00 54 1017.7
20260508004516 15 267 9.7 24.1 0.00 0.00 0.00 55 1017.7
20260508004008 15 300 9.7 29.0 0.00 0.00 0.00 55 1017.9
20260508003507 15 257 12.9 29.0 0.00 0.00 0.00 55 1017.9
20260508003025 15 248 9.7 20.9 0.00 0.00 0.00 56 1018.0
20260508002505 15 242 9.7 19.3 0.00 0.00 0.00 56 1017.9
20260508002008 14 223 8.0 19.3 0.00 0.00 0.00 57 1018.1
20260508001502 14 271 9.7 16.1 0.00 0.00 0.00 58 1018.1
20260508001001 13 265 9.7 20.9 0.00 0.00 0.00 58 1018.2
20260508000500 13 248 12.9 20.9 0.00 0.00 0.00 58 1018.2
20260507235602 13 245 11.3 32.2 0.00 0.00 0.00 59 1018.3
20260507235057 13 288 11.3 24.1 0.00 0.00 0.00 59 1018.3
20260507234556 12 240 12.9 22.5 0.00 0.00 0.00 59 1018.3
20260507234053 12 269 11.3 22.5 0.00 0.00 0.00 60 1018.3
20260507233552 12 234 12.9 27.4 0.00 0.00 0.00 60 1018.3
20260507233051 12 258 14.5 27.4 0.00 0.00 0.00 61 1018.2
20260507232549 12 255 12.9 24.1 0.00 0.00 0.00 61 1018.2
20260507232049 12 301 14.5 24.1 0.00 0.00 0.00 62 1018.3
20260507231546 11 267 11.3 24.1 0.00 0.00 0.00 62 1018.5
20260507231045 11 272 11.3 24.1 0.00 0.00 0.00 62 1018.4
20260507230543 11 251 11.3 24.1 0.00 0.00 0.00 63 1018.5
20260507230043 11 265 8.0 20.9 0.00 0.00 0.00 64 1018.5
20260507225541 11 279 9.7 19.3 0.00 0.00 0.00 64 1018.5
20260507225041 10 209 11.3 20.9 0.00 0.00 0.00 64 1018.5
20260507224558 10 279 11.3 25.7 0.00 0.00 0.00 64 1018.5
20260507224039 10 265 16.1 29.0 0.00 0.00 0.00 64 1018.5
20260507223537 10 239 16.1 29.0 0.00 0.00 0.00 64 1018.6
20260507223041 10 270 12.9 24.1 0.00 0.00 0.00 65 1018.6
20260507222536 10 282 11.3 20.9 0.00 0.00 0.00 66 1018.6
20260507222035 10 296 11.3 27.4 0.00 0.00 0.00 66 1018.7
20260507221534 9 262 14.5 27.4 0.00 0.00 0.00 66 1018.6
20260507221035 9 246 9.7 20.9 0.00 0.00 0.00 67 1018.6
20260507220537 8 246 12.9 20.9 0.00 0.00 0.00 67 1018.6
20260507220033 8 264 11.3 20.9 0.00 0.00 0.00 67 1018.6
20260507215533 8 252 11.3 20.9 0.00 0.00 0.00 68 1018.5
20260507215034 8 278 9.7 20.9 0.00 0.00 0.00 68 1018.4
20260507214531 8 277 11.3 20.9 0.00 0.00 0.00 68 1018.4
20260507214031 8 261 9.7 20.9 0.00 0.00 0.00 68 1018.5
20260507213533 8 232 9.7 22.5 0.00 0.00 0.00 68 1018.3
20260507213031 8 241 11.3 22.5 0.00 0.00 0.00 69 1018.4
20260507212529 8 275 9.7 20.9 0.00 0.00 0.00 69 1018.2
20260507212030 8 248 12.9 27.4 0.00 0.00 0.00 69 1018.2
20260507211529 8 317 11.3 22.5 0.00 0.00 0.00 69 1018.2
20260507211028 8 269 9.7 20.9 0.00 0.00 0.00 69 1018.2
20260507210530 7 271 9.7 22.5 0.00 0.00 0.00 69 1018.2
20260507210032 7 244 11.3 22.5 0.00 0.00 0.00 69 1018.3
20260507205528 7 239 11.3 20.9 0.00 0.00 0.00 69 1018.2
20260507205030 7 279 9.7 16.1 0.00 0.00 0.00 69 1018.3
20260507204526 7 284 6.4 16.1 0.00 0.00 0.00 69 1018.4
20260507204026 7 277 8.0 16.1 0.00 0.00 0.00 69 1018.4
20260507203525 7 280 6.4 14.5 0.00 0.00 0.00 68 1018.2
20260507203024 7 288 8.0 16.1 0.00 0.00 0.00 68 1018.2
20260507202523 7 276 8.0 16.1 0.00 0.00 0.00 68 1018.4
20260507202024 8 271 6.4 17.7 0.00 0.00 0.00 67 1018.4
20260507201526 8 265 6.4 19.3 0.00 0.00 0.00 67 1018.4
20260507201021 8 244 11.3 19.3 0.00 0.00 0.00 66 1018.4
20260507200519 8 250 9.7 16.1 0.00 0.00 0.00 66 1018.3
20260507200019 8 252 9.7 20.9 0.00 0.00 0.00 66 1018.2
20260507195618 8 212 11.3 20.9 0.00 0.00 0.00 65 1018.1
20260507195017 8 243 11.3 20.9 0.00 0.00 0.00 65 1018.1
20260507194517 8 281 9.7 19.3 0.00 0.00 0.00 65 1018.1
20260507194016 8 284 11.3 19.3 0.00 0.00 0.00 65 1018.1
20260507193516 8 269 11.3 22.5 0.00 0.00 0.00 64 1018.0
20260507193014 8 275 8.0 22.5 0.00 0.00 0.00 64 1018.0
20260507192515 8 264 11.3 20.9 0.00 0.00 0.00 64 1017.9
20260507192016 8 279 9.7 20.9 0.00 0.00 0.00 64 1017.8
20260507191514 8 283 9.7 24.1 0.00 0.00 0.00 64 1017.8
20260507191013 8 275 11.3 20.9 0.00 0.00 0.00 63 1017.9
20260507190512 8 294 9.7 20.9 0.00 0.00 0.00 64 1017.7
20260507190011 8 271 8.0 17.7 0.00 0.00 0.00 63 1017.7
20260507185510 8 264 9.7 17.7 0.00 0.00 0.00 63 1017.7
20260507185009 8 271 8.0 17.7 0.00 0.00 0.00 63 1017.8
20260507184512 8 286 9.7 22.5 0.00 0.00 0.00 63 1017.9
20260507184007 8 294 11.3 22.5 0.00 0.00 0.00 63 1017.9
20260507183506 8 286 9.7 19.3 0.00 0.00 0.00 63 1017.8
20260507183007 8 306 11.3 19.3 0.00 0.00 0.00 63 1017.8
20260507182506 8 286 9.7 19.3 0.00 0.00 0.00 63 1017.9
20260507182006 8 241 8.0 17.7 0.00 0.00 0.00 63 1017.9
20260507181506 8 278 8.0 16.1 0.00 0.00 0.00 63 1017.9
20260507181004 8 281 8.0 16.1 0.00 0.00 0.00 63 1017.9